Regional Weather Roundup
Issued by NWS

Home | Current Version | Previous Version | Text Only | Print | Product List | Glossary Off
Versions: 1 2 3 4 5 6 7 8 9 10 11 12 13 14 15 16 17 18 19 20 21 22 23 24 25 26 27 28 29 30 31 32 33 34 35 36 37 38 39 40 41 42 43 44 45 46 47 48 49 50

000
ASUS43 KLSX 181459
RWRMO

WEATHER SUMMARY FOR MISSOURI
NATIONAL WEATHER SERVICE SPRINGFIELD MO
900 AM CST THU DEC 18 2014

NOTE: "FAIR" INDICATES FEW OR NO CLOUDS BELOW 12,000 FEET WITH NO
       SIGNIFICANT WEATHER AND/OR OBSTRUCTIONS TO VISIBILITY.
       CURRENT SKY AND/OR WEATHER CONDITIONS ARE NOT AVAILABLE FOR
       CHILLICOTHE AND FARMINGTON.

MOZ001>031-035>038-043-044-053-054-181600-
...NORTHERN AND WESTERN MISSOURI...

CITY           SKY/WX    TMP DP  RH WIND       PRES   REMARKS
KANSAS CTY INT LGT SNOW  28  27  96 E8        30.23R FOG     WCI  20
KANSAS C DTWN  LGT SNOW  30  27  88 E9        30.24R FOG     WCI  22
LEE`S SUMMIT   LGT SNOW  30  27  88 E6        30.23R FOG     WCI  24
ST JOSEPH      LGT SNOW  28  26  92 E5        30.26R FOG     WCI  23
CHILLICOTHE      N/A     27  24  89 E6        30.28R WCI  20
KIRKSVILLE     LGT SNOW  25  24  96 E6        30.28S FOG     WCI  18

$$
MOZ066>068-077>081-088>096-101>105-181600-
...SOUTHWEST MISSOURI...

CITY           SKY/WX    TMP DP  RH WIND       PRES   REMARKS
SPRINGFIELD    CLOUDY    34  32  92 SE9       30.18R WCI  27
JOPLIN         CLOUDY    36  35  96 E3        30.20R FOG

$$
MOZ032>034-039>042-045>050-055>058-069>072-181600-
...CENTRAL MISSOURI...

CITY           SKY/WX    TMP DP  RH WIND       PRES   REMARKS
COLUMBIA       SNOW      29  27  92 E8        30.25R VSB 1/2 WCI  21
JEFFERSON CITY LGT SNOW  31  28  89 E7        30.27S FOG     WCI  24
ROLLA          LGT SNOW  30  28  92 E9        30.22R FOG     WCI  22
SEDALIA        LGT SNOW  31  29  92 E9        30.24R FOG     WCI  23
WARRENSBURG    LGT SNOW  30  30 100 NE6       30.24R WCI  24
OSAGE BEACH    CLOUDY    32  28  86 E7        30.22S WCI  26

$$
MOZ051-052-059>065-181600-
...EAST CENTRAL MISSOURI...

CITY           SKY/WX    TMP DP  RH WIND       PRES   REMARKS
ST LOUIS INTL  FLURRIES  30  24  78 NE6       30.30S WCI  24
SPIRIT OF STL  LGT SNOW  29  27  92 NE6       30.30R FOG     WCI  23
ST CHARLES     CLOUDY    29  24  82 NE7       30.31S WCI  22

$$
MOZ072>076-082>087-097>100-106>115-181600-
...SOUTH CENTRAL AND SOUTHEAST MISSOURI...

CITY           SKY/WX    TMP DP  RH WIND       PRES   REMARKS
CAPE GIRARDEAU CLOUDY    33  32  96 NE5       30.31R FOG     WCI  29
FARMINGTON     CLOUDY    32  32 100 NE6       30.27S WCI  26
POPLAR BLUFF   CLOUDY    35  32  88 NE6       30.28R FOG
WEST PLAINS    FOG       33  31  92 SE5       30.23R VSB 1   WCI  29

$$


USA.gov is the U.S. government's official web portal to all federal, state and local government web resources and services.